Location: Huisseau
(47.5933°N, 1.4533°E)
Time: 18:43:47
(UTC+00:00)

CENTAUR R/B - Pass Details

Date: 18 November 2025
Orbit: 633 x 1547 km, 63.4° (Epoch: 06 December)

Event Time Altitude Azimuth Distance (km) Brightness Sun altitude
Exits shadow 03:04:39 39° 11° (NNE) 1,909 4.0 -39.9°
Maximum altitude 03:05:59 42° 33° (NNE) 1,880 4.1 -39.7°
Drops below altitude 10° 03:14:33 10° 102° (ESE) 3,663 6.1 -38.3°
Sets 03:17:57 0° 109° (ESE) 4,689 6.7 -37.7°
